Home > Weather > Papeete > Past weeks

Flag for French Polynesia Weather for the Past 2 Weeks in Papeete, Tahiti, French Polynesia

Now
77 °F

Passing clouds.


Feels Like: 78 °F
Forecast: 77 / 86 °F
Wind: 3 mph from East

Location: Tahiti-Faaa

Current Time: Apr 30, 2016 at 1:55:02 AM

Latest Report: Apr 30, 2016 at 1:30 AM


Visibility: N/A

Pressure: 29.83 "Hg

Humidity: 89%

Dew Point: 73 °F

Location of PapeeteLocation

Historic Weather in Papeete — Graph

°F

Papeete Temperature Yesterday

Maximum temperature yesterday: 84 °F (at 12:00 PM)
Minimum temperature yesterday: 77 °F (at 12:00 AM)
Average temperature yesterday: 79 °F

High & Low Weather Summary for the Past Weeks

 TemperatureHumidityPressure
High90 °F (Apr 15, 3:00 PM)100% (Apr 20, 7:00 AM)29.98 "Hg (Apr 20, 7:00 AM)
Low75 °F (Apr 18, 6:00 PM)52% (Apr 16, 3:30 PM)29.71 "Hg (Apr 20, 4:00 PM)
Average81 °F80%29.81 "Hg
* Reported Apr 15 1:00 AM — Apr 30 1:00 AM, Papeete, Weather by CustomWeather, © 2016

Note: Actual official high and low records may vary slightly from our data, if they occured in-between our weather recording intervals... More about our weather records

Advertising

Papeete Weather History for the Previous 24 Hours

Scroll right to see more
 ConditionsComfort  
Time TempWeatherWind HumidityBarometerVisibility
1:00 AM
Sat, Apr 30
77 °FPassing clouds.5 mph89%29.83 "HgN/A
12:30 AM79 °FPassing clouds.3 mph84%29.83 "HgN/A
12:00 AM79 °FPassing clouds.5 mph89%29.86 "HgN/A
11:30 PM
Fri, Apr 29
79 °FPassing clouds.3 mph84%29.86 "HgN/A
11:00 PM79 °FPassing clouds.5 mph84%29.86 "HgN/A
10:30 PM79 °FPassing clouds.2 mph89%29.86 "HgN/A
10:00 PM79 °FPassing clouds.5 mph89%29.86 "HgN/A
9:30 PM79 °FPassing clouds.7 mph89%29.86 "HgN/A
9:00 PM79 °FPassing clouds.3 mph89%29.86 "HgN/A
8:30 PM79 °FPassing clouds.3 mph89%29.86 "HgN/A
8:00 PM79 °FPassing clouds.5 mph89%29.86 "HgN/A
7:30 PM79 °FPassing clouds.No wind89%29.83 "HgN/A
7:00 PM79 °FPassing clouds.1 mph89%29.83 "HgN/A
6:30 PM79 °FPassing clouds.5 mph89%29.83 "HgN/A
6:00 PM79 °FPassing clouds.3 mph89%29.83 "HgN/A
5:30 PM81 °FScattered clouds.5 mph84%29.83 "HgN/A
5:00 PM79 °FBroken clouds.7 mph89%29.83 "HgN/A
4:30 PM79 °FBroken clouds.7 mph89%29.83 "HgN/A
4:00 PM81 °FBroken clouds.9 mph89%29.80 "HgN/A
3:00 PM79 °FLight rain. Broken clouds.3 mph89%29.83 "HgN/A
2:00 PM81 °FLight rain. Broken clouds.7 mph84%29.83 "Hg6 mi
1:30 PM81 °FScattered showers. Broken clouds.2 mph84%29.83 "HgN/A
1:00 PM82 °FScattered showers. Broken clouds.7 mph79%29.83 "HgN/A
12:30 PM82 °FScattered showers. Broken clouds.6 mph74%29.83 "HgN/A
12:00 PM84 °FScattered showers. Broken clouds.No wind70%29.83 "HgN/A
11:30 AM82 °FScattered showers. Broken clouds.No wind74%29.86 "HgN/A
11:00 AM81 °FScattered showers. Broken clouds.6 mph84%29.86 "HgN/A
10:30 AM81 °FScattered showers. Broken clouds.3 mph84%29.86 "HgN/A
10:00 AM81 °FScattered showers. Broken clouds.5 mph84%29.89 "HgN/A
9:30 AM81 °FScattered showers. Broken clouds.5 mph84%29.89 "HgN/A
9:00 AM81 °FScattered showers. Broken clouds.13 mph84%29.86 "HgN/A
8:30 AM81 °FScattered showers. Partly sunny.5 mph84%29.86 "HgN/A
8:00 AM79 °FScattered showers. Broken clouds.6 mph89%29.86 "HgN/A
7:30 AM81 °FScattered showers. Partly sunny.5 mph84%29.86 "HgN/A
7:00 AM79 °FScattered showers. Partly sunny.5 mph89%29.86 "HgN/A
6:30 AM77 °FScattered showers. Partly sunny.3 mph94%29.86 "HgN/A
6:00 AM77 °FScattered showers. Partly cloudy.5 mph89%29.83 "HgN/A
5:30 AM77 °FMostly cloudy.6 mph89%29.83 "HgN/A
5:00 AM77 °FPartly cloudy.3 mph94%29.80 "HgN/A
4:30 AM77 °FOvercast.3 mph94%29.80 "HgN/A
4:00 AM77 °FWarm.2 mph94%29.80 "HgN/A
3:30 AM77 °FWarm.5 mph94%29.80 "HgN/A
3:00 AM77 °FScattered showers. Passing clouds.2 mph94%29.83 "HgN/A
2:30 AM77 °FScattered showers. Passing clouds.2 mph94%29.83 "HgN/A
2:00 AM77 °FScattered showers. Passing clouds.3 mph94%29.83 "HgN/A
1:30 AM77 °FScattered showers. Passing clouds.5 mph94%29.83 "HgN/A
1:00 AM77 °FScattered showers. Passing clouds.3 mph94%29.83 "HgN/A
Weather by CustomWeather, © 2016

See weather overviewHow to use our weather pages